Location: Hopville
(44.8032°N, 123.1329°W)
Time: 17:27:31
(UTC+00:00)

Cosmos 1689 Rocket - Pass Details

Date: 24 January 2021
Orbit: 353 x 367 km, 97.5° (Epoch: 01 March)

Event Time Altitude Azimuth Distance (km) Brightness Sun altitude
Rises 13:44:53 0° 162° (SSE) 2,214 6.3 -20.2°
Reaches altitude 10° 13:46:49 10° 159° (SSE) 1,368 5.2 -19.9°
Maximum altitude 13:49:43 70° 76° (ENE) 399 2.2 -19.4°
Enters shadow 13:50:13 54° 17° (NNE) 457 2.4 -19.3°
